星链-32134 (STARLINK-32134)

导读

STARLINK-32134是美国SpaceX公司星链星座的一员,于2024年7月28日随Starlink Group 9-4任务发射,属于第二代迷你版星链卫星,运行在近地轨道。作为星链互联网星座的组成部分,它承担着为全球偏远地区提供高速低延迟宽带互联网服务的任务,此次发射补充了SpaceX的星链组网进程,助力星链持续拓展全球覆盖能力。

基本信息
目录编号:
60300
目录名称:
STARLINK-32134
国际标识:
2024-132Y
轨道中心:
EARTH
卫星名称:
星链-32134 (STARLINK-32134)
卫星全名:
星链-32134 (STARLINK-32134)
卫星状态:
在轨 (已飞行690 天)
发射日期:
2024-07-28 UTC
国别 :
美国 (US)
星等 :
--
轨道信息
数据来源 国际轨道数据 AOE轨道数据
星历时间 2026-06-17T23:22:40+0800
9小时前
查看轨道信息
2026-06-17T13:00:00+0800
19小时前
查看轨道信息
半长轴 6853.382km 6853.358km
偏心率 0.0001231 0.0001505
轨道倾角 53.161° 53.162°
近地点辐角 94.142° 92.025°
升交点赤经 308.147° 310.157°
平近点角 265.972° 44.731°
近地点 474.401km 474.189km
远地点 476.089km 476.253km
周期 94.106分钟 94.105分钟
每日圈数 15.301901 15.301983
详细信息
卫星平台:
Starlink v2.0 mini
运营商:
太空探索技术公司
运营商所在国:
美国
制造商(研发单位):
太空探索技术公司
制造商所在国:
美国
使用方式:
暂无
卫星简介
星链(Starlink)计划是由太空探索技术公司(SpaceX)提出的一个巨型低轨卫星互联网星座项目,计划在2019年至2024年间在太空搭建由约1.2万颗卫星组成的“星链”网络,其中1584颗将部署在地球上空550千米处的近地轨道,并从2020年开始工作。该卫星仍在工作。
2D轨道图
3D轨道图
轨道高度分析图
轨道倾角分析图
轨道综合分析图
查看轨道综合分析图